Location: Madrid
(40.4000°N, 3.6830°W)
Time: 03:52:38
(UTC+02:00)

ISS - Pass Details

Date: 08 July 2020
Orbit: 417 x 421 km, 51.6° (Epoch: 09 July)

Event Time Altitude Azimuth Distance (km) Brightness Sun altitude
Exits shadow 03:24:30 26° 345° (NNW) 850 -1.7 -25.4°
Drops below altitude 10° 03:27:07 10° 35° (NE) 1,497 0.0 -25.2°
Sets 03:29:25 0° 48° (NE) 2,363 1.0 -25.1°
